• Join FlightAware (Why Join?)
  • Login
  • US Flag 
12:18AM EST


 

Airport Tracker/Info


-or-


 

Live Flight TrackerFlight Track Log ✈ UAL4086 ✈ 23-Apr-2013 ✈ KIAH - KSAT

Flight Track Log - Related Links

Times and Time Zones

All times are in EDT time to prevent confusion due to time zone crossing. See the UAL4086 flight status page for this flight to view local times or setup timezone preferences in your user account.

Time Position Orientation Groundspeed Altitude Reporting Facility
EDT Latitude Longitude Course Direction KTS MPH feet Rate Location/Type
09:57AM 29.9617 -95.3436 247° West 162 186 700  Level Houston Center
09:58AM 29.9256 -95.3625 204° Southwest 181 208 2,600 1,582 Climbing Houston Center
09:59AM 29.9075 -95.3883 231° Southwest 196 226 3,100 1,475 Climbing Houston Center
09:59AM 29.8844 -95.4181 228° Southwest 252 290 4,100 2,129 Climbing Houston Center
10:00AM 29.8639 -95.4483 232° Southwest 234 269 5,300 2,082 Climbing Houston Center
10:01AM 29.8459 -95.7458 249° West  Level FlightAware Approximate
10:01AM 29.8511 -95.5322 260° West 267 307 7,500  Level Houston Center
10:02AM 29.8098 -95.8481 247° West  Level FlightAware Approximate
10:02AM 29.8414 -95.6161 262° West 267 307 9,200  Level Houston Center
10:03AM 29.8303 -95.7272 263° West 291 335 11,200 1,707 Climbing Houston Center
10:04AM 29.8183 -95.8250 262° West 307 353 12,700 871 Climbing Houston Center
10:05AM 29.8078 -95.9308 263° West 330 380 13,000 935 Climbing Houston Center
10:07AM 29.7800 -96.1661 262° West 360 414 15,600 1,484 Climbing Houston Center
10:08AM 29.7856 -96.2733 273° West 339 390 17,600 1,902 Climbing Houston Center
10:09AM 29.7931 -96.3761 275° West 326 375 19,500 2,098 Climbing Houston Center
10:10AM 29.8025 -96.4925 275° West 310 357 21,900 2,081 Climbing Houston Center
10:11AM 29.8094 -96.5897 275° West 306 352 23,800 1,887 Climbing Houston Center
10:12AM 29.8164 -96.6808 275° West 291 335 25,800 1,065 Climbing Houston Center
10:13AM 29.8236 -96.7753 275° West 297 342 26,000 97 Climbing Houston Center
10:14AM 29.8308 -96.8825 274° West 324 373 26,000  Level Houston Center
10:15AM 29.8414 -97.0261 275° West 367 422 26,000  Level Houston Center
10:16AM 29.8494 -97.1508 274° West 387 445 26,000  Level Houston Center
10:17AM 29.8594 -97.2772 275° West 398 458 26,000 -629 Level Houston Center
10:18AM 29.8669 -97.4056 274° West 403 464 24,700 -2,274 Descending Houston Center
10:19AM 29.8767 -97.5294 275° West 392 451 21,300 -3,589 Descending Houston Center
10:20AM 29.8814 -97.6397 273° West 383 441 18,300 -3,871 Descending Houston Center
10:20AM 29.8847 -97.6758 276° West 377 434 17,300 -3,247 Descending Houston Center
10:21AM 29.8931 -97.8022 274° West 369 425 13,700 -2,226 Descending Houston Center
10:22AM 29.8736 -97.9172 259° West 377 434 12,700 -1,426 Descending Houston Center
10:23AM 29.8283 -98.0247 244° Southwest 336 387 10,800 -1,452 Descending Houston Center
10:24AM 29.7928 -98.1108 245° Southwest 299 344 9,700 -1,450 Descending Houston Center
10:25AM 29.7586 -98.1900 244° Southwest 278 320 7,900 -1,680 Descending Houston Center
10:27AM 29.7256 -98.2678 244° Southwest 272 313 6,200 -927 Descending Houston Center
10:28AM 29.6925 -98.3472 244° Southwest 253 291 6,000 -347 Descending Houston Center
10:29AM 29.6631 -98.4158 244° Southwest 241 277 5,500 -952 Descending Houston Center
10:30AM 29.6672 -98.4933 274° West 254 292 4,000 -898 Descending Houston Center
10:31AM 29.7111 -98.5614 307° West 264 304 3,600 -513 Descending Houston Center
10:32AM 29.7092 -98.6194 268° West 189 217 3,000 -310 Descending Houston Center
10:33AM 29.6717 -98.6239 186° South 140 161 3,000  Level Houston Center